Total_Precipitation_Accumulation
0.12 0.14 0.29 0.28 0.18 0.13 0.15 0.21 0.26 0.25 0.21 0.20 0.20 0.18 0.16 0.12 0.10 0.11 0.12 0.15 0.18 0.22 0.27 0.30 0.36 0.43 0.45 0.49 0.53 0.54 0.50 0.55 0.75 0.81 0.91 1.12 1.36 1.58 1.82 2.02 2.07 1.62 1.40
0.03 0.07 0.24 0.28 0.20 0.15 0.15 0.18 0.23 0.24 0.22 0.21 0.19 0.18 0.17 0.14 0.11 0.12 0.15 0.17 0.18 0.24 0.26 0.27 0.31 0.38 0.43 0.40 0.42 0.41 0.46 0.65 0.88 1.09 1.34 1.46 1.63 1.76 1.85 1.98 2.03 1.49 1.26
0.02 0.03 0.12 0.22 0.19 0.16 0.15 0.16 0.19 0.21 0.21 0.20 0.18 0.16 0.14 0.12 0.13 0.13 0.15 0.17 0.19 0.23 0.22 0.24 0.29 0.35 0.38 0.39 0.38 0.40 0.49 0.72 1.11 1.51 1.75 1.63 1.36 1.61 1.70 1.84 1.77 1.23 1.14
0.02 0.02 0.04 0.16 0.18 0.15 0.15 0.16 0.17 0.17 0.16 0.16 0.16 0.15 0.13 0.13 0.15 0.16 0.17 0.19 0.23 0.26 0.29 0.32 0.35 0.31 0.28 0.31 0.38 0.47 0.56 0.79 1.14 1.64 1.67 1.39 1.08 1.24 1.45 1.38 1.31 1.11 1.05
0.04 0.02 0.07 0.14 0.16 0.15 0.14 0.14 0.15 0.14 0.14 0.15 0.15 0.15 0.13 0.14 0.16 0.18 0.20 0.24 0.29 0.37 0.39 0.38 0.35 0.29 0.27 0.28 0.38 0.51 0.64 0.90 1.15 1.43 1.20 1.27 1.35 1.28 1.24 1.15 1.14 0.99 0.90
0.06 0.04 0.09 0.14 0.16 0.16 0.14 0.14 0.14 0.14 0.14 0.15 0.16 0.15 0.13 0.14 0.18 0.22 0.24 0.26 0.29 0.37 0.36 0.37 0.32 0.31 0.28 0.31 0.44 0.53 0.74 1.02 1.10 0.91 0.87 1.07 1.05 1.20 1.14 1.09 1.00 0.88 0.75
0.05 0.06 0.09 0.16 0.19 0.19 0.18 0.18 0.17 0.16 0.15 0.16 0.16 0.15 0.16 0.18 0.22 0.27 0.27 0.25 0.27 0.34 0.34 0.31 0.32 0.33 0.35 0.39 0.46 0.51 0.67 0.94 0.92 0.75 0.79 0.99 0.91 0.99 1.08 1.09 1.06 0.89 0.73
0.08 0.06 0.11 0.18 0.21 0.21 0.22 0.22 0.21 0.19 0.17 0.17 0.17 0.18 0.19 0.21 0.22 0.25 0.26 0.29 0.29 0.31 0.31 0.31 0.31 0.30 0.37 0.42 0.47 0.48 0.60 0.77 0.70 0.62 0.66 0.74 0.78 0.90 1.08 1.01 0.95 0.87 0.71
0.30 0.17 0.15 0.16 0.20 0.23 0.27 0.26 0.24 0.21 0.20 0.19 0.20 0.19 0.19 0.19 0.20 0.24 0.29 0.33 0.31 0.33 0.31 0.32 0.32 0.33 0.37 0.41 0.47 0.49 0.59 0.74 0.70 0.75 0.66 0.58 0.67 0.86 1.10 1.01 0.89 0.85 0.77
0.57 0.34 0.27 0.26 0.31 0.31 0.29 0.27 0.29 0.26 0.23 0.21 0.20 0.19 0.20 0.21 0.24 0.32 0.36 0.40 0.38 0.41 0.39 0.40 0.40 0.43 0.47 0.48 0.54 0.61 0.74 0.73 0.76 0.86 0.70 0.48 0.64 0.89 1.16 1.15 1.04 1.03 0.90
0.87 0.74 0.64 0.55 0.48 0.50 0.45 0.36 0.41 0.39 0.38 0.36 0.37 0.37 0.46 0.62 0.59 0.69 0.62 0.65 0.60 0.61 0.63 0.65 0.66 0.67 0.69 0.60 0.73 0.82 0.81 0.88 1.05 0.98 0.73 0.54 0.71 1.05 1.23 1.25 1.16 1.12 1.10
1.16 1.06 1.04 0.88 0.68 0.60 0.56 0.70 0.86 0.81 0.82 0.85 0.92 0.89 1.04 1.13 1.12 0.90 0.94 1.02 1.04 1.12 1.12 1.16 1.34 1.17 0.95 0.81 0.98 1.12 0.95 0.97 1.07 0.82 0.61 0.65 0.82 1.12 1.30 1.25 1.21 1.16 1.16
1.60 1.39 1.16 1.15 1.07 1.05 1.07 1.07 1.11 1.25 1.31 1.43 1.50 1.46 1.61 1.41 1.25 1.15 1.35 1.51 1.48 1.45 1.37 1.60 1.82 1.51 1.45 1.59 1.59 1.44 1.29 1.16 1.15 0.95 0.81 0.89 1.03 1.30 1.43 1.32 1.31 1.27 1.11
2.20 2.10 1.98 1.77 1.63 1.62 1.48 1.29 1.21 1.18 1.25 1.36 1.48 1.52 1.69 1.77 1.68 1.71 1.85 1.71 1.68 1.72 1.91 1.88 2.08 1.95 1.83 1.74 1.70 1.82 1.75 1.46 1.39 1.30 1.30 1.32 1.37 1.51 1.61 1.52 1.48 1.44 1.30
2.67 2.77 3.20 2.98 2.46 2.10 1.82 1.53 1.27 1.21 1.08 1.05 1.17 1.37 1.55 1.69 1.81 1.93 1.78 1.66 1.44 1.66 1.92 2.01 1.84 2.03 2.03 2.07 2.04 2.03 2.06 1.80 1.63 1.51 1.56 1.73 1.67 1.64 1.74 1.78 1.73 1.67 1.61
3.53 3.50 3.59 3.86 3.31 2.58 2.07 1.74 1.44 1.16 1.15 1.15 1.17 1.22 1.40 1.55 1.64 1.71 1.65 1.58 1.52 1.64 1.81 1.84 1.85 2.10 2.19 2.16 1.87 1.76 1.76 1.80 1.71 1.53 1.66 1.77 1.78 1.62 1.70 1.92 1.98 1.95 1.94
4.17 4.27 4.27 4.38 4.00 3.40 2.86 2.29 1.77 1.47 1.25 1.25 1.26 1.16 1.17 1.30 1.35 1.46 1.49 1.44 1.50 1.54 1.54 1.52 1.59 1.80 1.79 1.73 1.59 1.52 1.57 1.60 1.67 1.64 1.52 1.56 1.69 1.74 1.66 1.80 1.92 1.97 2.10
4.85 5.06 5.07 4.78 4.58 4.06 3.41 2.82 2.38 2.04 1.74 1.46 1.32 1.15 0.97 1.04 1.08 1.17 1.12 1.15 1.19 1.21 1.21 1.26 1.31 1.44 1.56 1.66 1.65 1.52 1.63 1.71 1.61 1.68 1.65 1.55 1.75 1.65 1.85 1.97 1.94 1.88 2.10
6.01 6.44 6.20 5.46 4.90 4.31 3.67 3.13 2.91 2.66 2.22 1.80 1.62 1.39 1.15 1.00 0.97 1.03 1.04 1.06 0.93 0.96 0.98 0.93 1.08 1.24 1.40 1.47 1.34 1.41 1.37 1.40 1.41 1.35 1.51 1.40 1.51 1.62 1.78 1.86 1.93 1.85 2.11
6.38 7.04 6.89 6.16 5.16 4.41 3.95 3.44 3.19 2.87 2.44 1.97 1.72 1.53 1.25 1.06 0.95 0.94 0.89 0.82 0.74 0.81 0.89 0.95 1.12 1.15 1.16 1.22 1.10 1.22 1.15 1.04 1.11 1.17 1.15 1.20 1.26 1.20 1.44 1.65 1.82 1.54 1.85
5.34 5.82 5.69 5.02 4.43 3.78 3.23 2.64 2.44 2.21 2.00 1.75 1.52 1.31 1.20 1.06 0.98 0.93 0.83 0.86 0.73 0.73 0.74 0.72 0.82 0.91 0.93 0.97 1.17 1.21 1.02 0.90 0.94 0.95 0.91 1.00 1.02 1.09 1.41 1.66 1.70 1.63 1.46
3.81 3.99 3.52 3.26 3.09 2.65 2.37 2.21 1.99 1.89 1.70 1.48 1.35 1.23 0.98 0.93 0.93 0.83 0.85 0.81 0.75 0.76 0.71 0.72 0.79 0.85 0.87 0.88 1.01 1.14 1.07 1.09 0.99 0.74 0.89 0.92 0.94 1.13 1.29 1.31 1.42 1.61 1.40
2.62 2.58 2.30 2.16 2.32 2.21 2.16 2.07 1.92 1.93 1.88 1.63 1.31 1.19 0.96 0.82 0.81 0.81 0.82 0.83 0.83 0.68 0.69 0.74 0.71 0.74 0.76 0.75 0.78 0.94 1.00 1.06 0.94 0.79 0.79 0.80 0.89 1.08 1.12 1.24 1.13 1.23 1.35
1.73 1.80 1.99 2.00 2.02 1.91 1.90 1.67 1.46 1.33 1.25 1.16 1.12 1.07 1.03 0.88 0.80 0.75 0.75 0.85 0.82 0.71 0.78 0.60 0.59 0.68 0.73 0.63 0.60 0.63 0.65 0.79 0.91 0.98 0.86 0.78 0.83 0.87 0.92 0.98 0.98 1.06 1.12
1.30 1.53 1.90 1.95 1.84 1.72 1.66 1.61 1.60 1.47 1.42 1.32 1.26 1.29 1.23 1.16 1.02 0.80 0.70 0.79 0.82 0.80 0.86 0.75 0.78 0.67 0.62 0.58 0.55 0.59 0.61 0.57 0.60 0.81 0.95 0.89 0.84 0.69 0.69 0.73 0.77 0.84 0.91
1.18 1.30 1.49 1.64 1.76 1.79 1.80 1.79 1.69 1.60 1.57 1.43 1.31 1.20 1.15 1.11 1.04 0.93 0.85 0.92 0.91 0.84 0.85 0.80 0.81 0.75 0.70 0.68 0.57 0.54 0.73 0.67 0.54 0.64 0.70 0.75 0.75 0.57 0.59 0.67 0.66 0.73 0.82